Time,TemperatureF,DewpointF,PressureIn,WindDirection,WindDirectionDegrees,WindSpeedMPH,WindSpeedGustMPH,Humidity,HourlyPrecipIn,Conditions,Clouds,dailyrainin,SoftwareType,DateUTC
2016-02-11 00:02:00,22.1,18.3,30.10,ESE,115,0.0,0.0,85,0.00,,,0.00,Wunderground v.1.15,2016-02-11 06:02:00,
2016-02-11 00:07:00,22.1,18.3,30.10,ESE,115,0.0,0.0,85,0.00,,,0.00,Wunderground v.1.15,2016-02-11 06:07:00,
2016-02-11 00:12:00,22.2,18.4,30.10,ESE,115,0.0,0.0,85,0.00,,,0.00,Wunderground v.1.15,2016-02-11 06:12:00,
2016-02-11 00:17:00,22.2,18.4,30.09,ESE,115,1.0,1.0,85,0.00,,,0.00,Wunderground v.1.15,2016-02-11 06:17:00,
2016-02-11 00:22:00,22.2,18.4,30.09,ESE,115,0.0,1.0,85,0.00,,,0.00,Wunderground v.1.15,2016-02-11 06:22:00,
2016-02-11 00:28:00,22.2,18.4,30.09,ESE,115,0.0,2.0,85,0.00,,,0.00,Wunderground v.1.15,2016-02-11 06:28:00,
2016-02-11 00:33:00,22.2,18.4,30.09,ESE,115,0.0,0.0,85,0.00,,,0.00,Wunderground v.1.15,2016-02-11 06:33:00,
2016-02-11 00:38:00,22.2,18.4,30.09,ESE,115,0.0,0.0,85,0.00,,,0.00,Wunderground v.1.15,2016-02-11 06:38:00,
2016-02-11 00:44:00,22.2,18.4,30.09,ESE,115,0.0,1.0,85,0.00,,,0.00,Wunderground v.1.15,2016-02-11 06:44:00,
2016-02-11 00:49:00,22.2,18.4,30.10,ESE,115,0.0,1.0,85,0.00,,,0.00,Wunderground v.1.15,2016-02-11 06:49:00,
2016-02-11 01:00:00,22.2,18.4,30.10,ESE,115,0.0,0.0,85,0.00,,,0.00,Wunderground v.1.15,2016-02-11 07:00:00,
2016-02-11 01:05:00,22.2,18.4,30.10,NNE,24,0.0,0.0,85,0.00,,,0.00,Wunderground v.1.15,2016-02-11 07:05:00,
2016-02-11 01:10:00,22.2,18.4,30.10,NNE,24,0.0,0.0,85,0.00,,,0.00,Wunderground v.1.15,2016-02-11 07:10:00,
2016-02-11 01:15:00,22.2,18.4,30.10,NNE,24,0.0,0.0,85,0.00,,,0.00,Wunderground v.1.15,2016-02-11 07:15:00,
2016-02-11 01:20:00,22.2,18.4,30.10,NNE,24,0.0,0.0,85,0.00,,,0.00,Wunderground v.1.15,2016-02-11 07:20:00,
2016-02-11 01:26:00,22.2,18.4,30.10,NNE,24,1.0,2.0,85,0.00,,,0.00,Wunderground v.1.15,2016-02-11 07:26:00,
2016-02-11 01:31:00,22.2,18.4,30.10,NNE,24,0.0,1.0,85,0.00,,,0.00,Wunderground v.1.15,2016-02-11 07:31:00,
2016-02-11 01:36:00,22.2,18.4,30.10,NNE,24,0.0,1.0,85,0.00,,,0.00,Wunderground v.1.15,2016-02-11 07:36:00,
2016-02-11 01:41:00,22.2,18.4,30.10,NNE,24,0.0,0.0,85,0.00,,,0.00,Wunderground v.1.15,2016-02-11 07:41:00,
2016-02-11 01:46:00,22.2,18.4,30.10,NNE,24,0.0,0.0,85,0.00,,,0.00,Wunderground v.1.15,2016-02-11 07:46:00,
2016-02-11 01:51:00,22.2,18.4,30.10,NNE,24,0.0,0.0,85,0.00,,,0.00,Wunderground v.1.15,2016-02-11 07:51:00,
2016-02-11 01:57:00,22.4,18.6,30.10,NNE,24,0.0,0.0,85,0.00,,,0.00,Wunderground v.1.15,2016-02-11 07:57:00,
2016-02-11 02:02:00,22.4,18.6,30.11,NNE,24,0.0,0.0,85,0.00,,,0.00,Wunderground v.1.15,2016-02-11 08:02:00,
2016-02-11 02:07:00,22.4,18.6,30.11,NNE,24,0.0,0.0,85,0.00,,,0.00,Wunderground v.1.15,2016-02-11 08:07:00,
2016-02-11 02:12:00,22.4,18.6,30.11,NNE,24,0.0,0.0,85,0.00,,,0.00,Wunderground v.1.15,2016-02-11 08:12:00,
2016-02-11 02:17:00,22.5,18.7,30.12,NNE,24,0.0,0.0,85,0.00,,,0.00,Wunderground v.1.15,2016-02-11 08:17:00,
2016-02-11 02:22:00,22.5,18.7,30.12,NNE,24,0.0,0.0,85,0.00,,,0.00,Wunderground v.1.15,2016-02-11 08:22:00,
2016-02-11 02:27:00,22.5,18.7,30.12,NNE,24,0.0,0.0,85,0.00,,,0.00,Wunderground v.1.15,2016-02-11 08:27:00,
2016-02-11 02:32:00,22.7,18.9,30.12,NNE,24,0.0,0.0,85,0.00,,,0.00,Wunderground v.1.15,2016-02-11 08:32:00,
2016-02-11 02:37:00,22.7,18.9,30.12,NNE,24,0.0,0.0,85,0.00,,,0.00,Wunderground v.1.15,2016-02-11 08:37:00,
2016-02-11 02:42:00,22.9,19.1,30.12,NNE,24,0.0,2.0,85,0.00,,,0.00,Wunderground v.1.15,2016-02-11 08:42:00,
2016-02-11 02:47:00,22.9,19.1,30.13,NNE,24,0.0,2.0,85,0.00,,,0.00,Wunderground v.1.15,2016-02-11 08:47:00,
2016-02-11 02:52:00,22.9,19.1,30.13,NNE,24,0.0,0.0,85,0.00,,,0.00,Wunderground v.1.15,2016-02-11 08:52:00,
2016-02-11 02:57:00,22.9,19.1,30.13,NNE,24,0.0,2.0,85,0.00,,,0.00,Wunderground v.1.15,2016-02-11 08:57:00,
2016-02-11 03:02:00,22.9,19.1,30.13,NNE,24,0.0,3.0,85,0.00,,,0.00,Wunderground v.1.15,2016-02-11 09:02:00,
2016-02-11 03:07:00,23.0,19.2,30.13,NNE,24,1.0,3.0,85,0.00,,,0.00,Wunderground v.1.15,2016-02-11 09:07:00,
2016-02-11 03:12:00,23.2,19.4,30.13,NNE,24,0.0,2.0,85,0.00,,,0.00,Wunderground v.1.15,2016-02-11 09:12:00,
2016-02-11 03:17:00,23.2,19.4,30.13,NNE,24,0.0,2.0,85,0.00,,,0.00,Wunderground v.1.15,2016-02-11 09:17:00,
2016-02-11 03:28:00,23.2,19.4,30.13,NNE,24,0.0,0.0,85,0.00,,,0.00,Wunderground v.1.15,2016-02-11 09:28:00,
2016-02-11 03:33:00,23.0,19.2,30.13,NNE,24,0.0,2.0,85,0.00,,,0.00,Wunderground v.1.15,2016-02-11 09:33:00,
2016-02-11 03:38:00,23.0,19.2,30.13,NNE,24,0.0,2.0,85,0.00,,,0.00,Wunderground v.1.15,2016-02-11 09:38:00,
2016-02-11 03:43:00,23.0,19.2,30.13,NNE,24,0.0,0.0,85,0.00,,,0.00,Wunderground v.1.15,2016-02-11 09:43:00,
2016-02-11 03:48:00,23.0,19.2,30.13,NNE,24,0.0,2.0,85,0.00,,,0.00,Wunderground v.1.15,2016-02-11 09:48:00,
2016-02-11 03:53:00,23.0,19.2,30.13,NNE,24,0.0,2.0,85,0.00,,,0.00,Wunderground v.1.15,2016-02-11 09:53:00,
2016-02-11 03:58:00,23.0,19.2,30.13,NNE,24,0.0,2.0,85,0.00,,,0.00,Wunderground v.1.15,2016-02-11 09:58:00,
2016-02-11 04:03:00,23.0,19.2,30.13,NNE,24,0.0,0.0,85,0.00,,,0.00,Wunderground v.1.15,2016-02-11 10:03:00,
2016-02-11 04:08:00,23.0,19.2,30.13,NNE,24,0.0,0.0,85,0.00,,,0.00,Wunderground v.1.15,2016-02-11 10:08:00,
2016-02-11 04:13:00,23.0,19.2,30.13,NNE,24,1.0,3.0,85,0.00,,,0.00,Wunderground v.1.15,2016-02-11 10:13:00,
2016-02-11 04:18:00,23.0,19.2,30.14,NNE,24,2.0,3.0,85,0.00,,,0.00,Wunderground v.1.15,2016-02-11 10:18:00,
2016-02-11 04:23:00,23.0,19.2,30.14,NE,35,2.0,4.0,85,0.00,,,0.00,Wunderground v.1.15,2016-02-11 10:23:00,
2016-02-11 04:28:00,23.0,19.2,30.14,NNE,30,1.0,6.0,85,0.00,,,0.00,Wunderground v.1.15,2016-02-11 10:28:00,
2016-02-11 04:33:00,23.0,19.2,30.15,NNE,28,4.0,5.0,85,0.00,,,0.00,Wunderground v.1.15,2016-02-11 10:33:00,
2016-02-11 04:38:00,23.0,18.9,30.15,NNE,22,2.0,9.0,84,0.00,,,0.00,Wunderground v.1.15,2016-02-11 10:38:00,
2016-02-11 04:43:00,22.9,18.8,30.15,North,355,2.0,6.0,84,0.00,,,0.00,Wunderground v.1.15,2016-02-11 10:43:00,
2016-02-11 04:48:00,22.9,18.8,30.17,NNE,16,0.0,6.0,84,0.00,,,0.00,Wunderground v.1.15,2016-02-11 10:48:00,
2016-02-11 04:58:00,22.7,18.6,30.17,NE,35,0.0,10.0,84,0.00,,,0.00,Wunderground v.1.15,2016-02-11 10:58:00,
2016-02-11 05:03:00,22.7,18.6,30.18,NNE,23,2.0,4.0,84,0.00,,,0.00,Wunderground v.1.15,2016-02-11 11:03:00,
2016-02-11 05:08:00,22.5,18.4,30.18,NNE,33,0.0,5.0,84,0.00,,,0.00,Wunderground v.1.15,2016-02-11 11:08:00,
2016-02-11 05:13:00,22.5,18.4,30.18,NNE,33,0.0,2.0,84,0.00,,,0.00,Wunderground v.1.15,2016-02-11 11:13:00,
2016-02-11 05:18:00,22.5,18.4,30.19,NNE,33,0.0,2.0,84,0.00,,,0.00,Wunderground v.1.15,2016-02-11 11:18:00,
2016-02-11 05:23:00,22.5,18.4,30.19,NNE,32,0.0,3.0,84,0.00,,,0.00,Wunderground v.1.15,2016-02-11 11:23:00,
2016-02-11 05:28:00,22.4,18.0,30.19,North,9,3.0,7.0,83,0.00,,,0.00,Wunderground v.1.15,2016-02-11 11:28:00,
2016-02-11 05:39:00,22.2,17.8,30.19,North,10,0.0,0.0,83,0.00,,,0.00,Wunderground v.1.15,2016-02-11 11:39:00,
2016-02-11 05:44:00,22.2,17.8,30.19,NNE,32,0.0,0.0,83,0.00,,,0.00,Wunderground v.1.15,2016-02-11 11:44:00,
2016-02-11 05:49:00,22.1,17.4,30.21,NNE,32,0.0,0.0,82,0.00,,,0.00,Wunderground v.1.15,2016-02-11 11:49:00,
2016-02-11 05:54:00,22.1,17.4,30.21,NNE,33,3.0,3.0,82,0.00,,,0.00,Wunderground v.1.15,2016-02-11 11:54:00,
2016-02-11 06:04:00,21.9,17.0,30.21,NNE,33,0.0,2.0,81,0.00,,,0.00,Wunderground v.1.15,2016-02-11 12:04:00,
2016-02-11 06:09:00,21.9,17.0,30.21,North,360,1.0,1.0,81,0.00,,,0.00,Wunderground v.1.15,2016-02-11 12:09:00,
2016-02-11 06:14:00,21.9,17.0,30.21,North,360,0.0,2.0,81,0.00,,,0.00,Wunderground v.1.15,2016-02-11 12:14:00,
2016-02-11 06:19:00,21.9,17.0,30.22,NNE,17,0.0,0.0,81,0.00,,,0.00,Wunderground v.1.15,2016-02-11 12:19:00,
2016-02-11 06:24:00,21.9,16.7,30.22,North,5,0.0,3.0,80,0.00,,,0.00,Wunderground v.1.15,2016-02-11 12:24:00,
2016-02-11 06:29:00,21.9,16.7,30.22,North,5,1.0,2.0,80,0.00,,,0.00,Wunderground v.1.15,2016-02-11 12:29:00,
2016-02-11 06:34:00,21.9,16.7,30.22,North,5,0.0,2.0,80,0.00,,,0.00,Wunderground v.1.15,2016-02-11 12:34:00,
2016-02-11 06:39:00,21.9,16.7,30.22,North,5,0.0,0.0,80,0.00,,,0.00,Wunderground v.1.15,2016-02-11 12:39:00,
2016-02-11 06:44:00,21.9,16.7,30.22,North,5,0.0,0.0,80,0.00,,,0.00,Wunderground v.1.15,2016-02-11 12:44:00,
2016-02-11 06:49:00,21.9,16.7,30.23,North,5,0.0,0.0,80,0.00,,,0.00,Wunderground v.1.15,2016-02-11 12:49:00,
2016-02-11 06:54:00,21.9,16.7,30.23,North,5,2.0,3.0,80,0.00,,,0.00,Wunderground v.1.15,2016-02-11 12:54:00,
2016-02-11 06:59:00,21.9,16.7,30.23,North,5,0.0,0.0,80,0.00,,,0.00,Wunderground v.1.15,2016-02-11 12:59:00,
2016-02-11 07:04:00,21.9,16.4,30.23,North,5,0.0,2.0,79,0.00,,,0.00,Wunderground v.1.15,2016-02-11 13:04:00,
2016-02-11 07:14:00,21.9,16.4,30.23,North,5,0.0,3.0,79,0.00,,,0.00,Wunderground v.1.15,2016-02-11 13:14:00,
2016-02-11 07:19:00,21.9,16.4,30.23,NNE,30,3.0,3.0,79,0.00,,,0.00,Wunderground v.1.15,2016-02-11 13:19:00,
2016-02-11 07:24:00,21.9,16.4,30.23,NNE,33,0.0,4.0,79,0.00,,,0.00,Wunderground v.1.15,2016-02-11 13:24:00,
2016-02-11 07:29:00,21.9,16.4,30.23,NNE,33,0.0,1.0,79,0.00,,,0.00,Wunderground v.1.15,2016-02-11 13:29:00,
2016-02-11 07:34:00,21.9,16.4,30.24,NE,38,1.0,4.0,79,0.00,,,0.00,Wunderground v.1.15,2016-02-11 13:34:00,
2016-02-11 07:39:00,21.9,16.4,30.24,NE,50,0.0,5.0,79,0.00,,,0.00,Wunderground v.1.15,2016-02-11 13:39:00,
2016-02-11 07:44:00,21.9,16.4,30.24,NE,38,0.0,5.0,79,0.00,,,0.00,Wunderground v.1.15,2016-02-11 13:44:00,
2016-02-11 07:49:00,21.9,16.4,30.25,NNE,19,0.0,1.0,79,0.00,,,0.00,Wunderground v.1.15,2016-02-11 13:49:00,
2016-02-11 07:54:00,22.1,16.6,30.25,NNE,19,2.0,3.0,79,0.00,,,0.00,Wunderground v.1.15,2016-02-11 13:54:00,
2016-02-11 07:59:00,22.1,16.6,30.25,East,101,1.0,2.0,79,0.00,,,0.00,Wunderground v.1.15,2016-02-11 13:59:00,
2016-02-11 08:05:00,22.1,16.6,30.25,ENE,63,0.0,4.0,79,0.00,,,0.00,Wunderground v.1.15,2016-02-11 14:05:00,
2016-02-11 08:10:00,22.1,16.6,30.25,ENE,63,1.0,1.0,79,0.00,,,0.00,Wunderground v.1.15,2016-02-11 14:10:00,
2016-02-11 08:15:00,22.2,16.7,30.26,ENE,63,0.0,2.0,79,0.00,,,0.00,Wunderground v.1.15,2016-02-11 14:15:00,
2016-02-11 08:20:00,22.2,16.4,30.26,NNE,29,3.0,5.0,78,0.00,,,0.00,Wunderground v.1.15,2016-02-11 14:20:00,
2016-02-11 08:25:00,22.2,16.1,30.26,NE,50,2.0,5.0,77,0.00,,,0.00,Wunderground v.1.15,2016-02-11 14:25:00,
2016-02-11 08:30:00,22.4,16.3,30.27,ESE,103,3.0,5.0,77,0.00,,,0.00,Wunderground v.1.15,2016-02-11 14:30:00,
2016-02-11 08:35:00,22.4,16.0,30.27,ENE,64,3.0,5.0,76,0.00,,,0.00,Wunderground v.1.15,2016-02-11 14:35:00,
2016-02-11 08:40:00,22.5,16.1,30.27,North,5,2.0,7.0,76,0.00,,,0.00,Wunderground v.1.15,2016-02-11 14:40:00,
2016-02-11 08:45:00,22.7,16.0,30.28,NE,45,1.0,7.0,75,0.00,,,0.00,Wunderground v.1.15,2016-02-11 14:45:00,
2016-02-11 08:50:00,22.9,15.8,30.28,North,9,3.0,3.0,74,0.00,,,0.00,Wunderground v.1.15,2016-02-11 14:50:00,
2016-02-11 08:55:00,23.0,15.9,30.28,NE,40,0.0,4.0,74,0.00,,,0.00,Wunderground v.1.15,2016-02-11 14:55:00,
2016-02-11 09:00:00,23.2,15.8,30.28,NE,49,1.0,4.0,73,0.00,,,0.00,Wunderground v.1.15,2016-02-11 15:00:00,
2016-02-11 09:05:00,23.2,15.8,30.28,NE,50,0.0,4.0,73,0.00,,,0.00,Wunderground v.1.15,2016-02-11 15:05:00,
2016-02-11 09:10:00,23.3,15.9,30.28,NNE,28,3.0,6.0,73,0.00,,,0.00,Wunderground v.1.15,2016-02-11 15:10:00,
2016-02-11 09:15:00,23.2,15.8,30.28,East,83,0.0,6.0,73,0.00,,,0.00,Wunderground v.1.15,2016-02-11 15:15:00,
2016-02-11 09:20:00,23.3,15.9,30.28,NNE,29,1.0,4.0,73,0.00,,,0.00,Wunderground v.1.15,2016-02-11 15:20:00,
2016-02-11 09:25:00,23.5,16.1,30.28,NE,34,2.0,7.0,73,0.00,,,0.00,Wunderground v.1.15,2016-02-11 15:25:00,
2016-02-11 09:30:00,23.6,15.9,30.28,North,5,3.0,7.0,72,0.00,,,0.00,Wunderground v.1.15,2016-02-11 15:30:00,
2016-02-11 09:35:00,23.6,15.9,30.28,NE,50,2.0,7.0,72,0.00,,,0.00,Wunderground v.1.15,2016-02-11 15:35:00,
2016-02-11 09:40:00,23.8,16.1,30.28,NNE,18,0.0,8.0,72,0.00,,,0.00,Wunderground v.1.15,2016-02-11 15:40:00,
2016-02-11 09:45:00,23.9,16.2,30.29,NNE,25,0.0,8.0,72,0.00,,,0.00,Wunderground v.1.15,2016-02-11 15:45:00,
2016-02-11 10:00:00,24.8,16.7,30.29,NE,38,2.0,3.0,71,0.00,,,0.00,Wunderground v.1.15,2016-02-11 16:00:00,
2016-02-11 10:10:00,25.3,16.9,30.29,NNE,26,1.0,4.0,70,0.00,,,0.00,Wunderground v.1.15,2016-02-11 16:10:00,
2016-02-11 10:15:00,25.1,16.4,30.29,NE,53,0.0,5.0,69,0.00,,,0.00,Wunderground v.1.15,2016-02-11 16:15:00,
2016-02-11 10:20:00,25.1,16.4,30.29,NNE,32,4.0,5.0,69,0.00,,,0.00,Wunderground v.1.15,2016-02-11 16:20:00,
2016-02-11 10:25:00,25.0,16.3,30.29,NE,41,1.0,5.0,69,0.00,,,0.00,Wunderground v.1.15,2016-02-11 16:25:00,
2016-02-11 10:30:00,25.4,16.6,30.29,NE,41,0.0,1.0,69,0.00,,,0.00,Wunderground v.1.15,2016-02-11 16:30:00,
2016-02-11 10:35:00,26.1,17.3,30.29,NE,41,0.0,3.0,69,0.00,,,0.00,Wunderground v.1.15,2016-02-11 16:35:00,
2016-02-11 10:40:00,26.6,16.8,30.29,NE,42,2.0,3.0,66,0.00,,,0.00,Wunderground v.1.15,2016-02-11 16:40:00,
2016-02-11 10:45:00,26.9,17.4,30.29,ENE,72,0.0,4.0,67,0.00,,,0.00,Wunderground v.1.15,2016-02-11 16:45:00,
2016-02-11 10:50:00,26.3,15.8,30.29,NNE,32,3.0,3.0,64,0.00,,,0.00,Wunderground v.1.15,2016-02-11 16:50:00,
2016-02-11 10:55:00,26.1,16.3,30.29,NNE,31,3.0,4.0,66,0.00,,,0.00,Wunderground v.1.15,2016-02-11 16:55:00,
2016-02-11 11:00:00,26.4,16.9,30.29,NNE,12,5.0,5.0,67,0.00,,,0.00,Wunderground v.1.15,2016-02-11 17:00:00,
2016-02-11 11:05:00,26.0,15.5,30.29,North,9,4.0,8.0,64,0.00,,,0.00,Wunderground v.1.15,2016-02-11 17:05:00,
2016-02-11 11:10:00,25.8,15.3,30.29,North,355,6.0,6.0,64,0.00,,,0.00,Wunderground v.1.15,2016-02-11 17:10:00,
2016-02-11 11:15:00,25.6,14.4,30.29,NE,55,4.0,7.0,62,0.00,,,0.00,Wunderground v.1.15,2016-02-11 17:15:00,
2016-02-11 11:20:00,25.7,14.1,30.29,NW,323,4.0,7.0,61,0.00,,,0.00,Wunderground v.1.15,2016-02-11 17:20:00,
2016-02-11 11:26:00,26.1,13.3,30.29,North,355,2.0,7.0,58,0.00,,,0.00,Wunderground v.1.15,2016-02-11 17:26:00,
2016-02-11 11:31:00,25.8,12.2,30.29,North,11,2.0,6.0,56,0.00,,,0.00,Wunderground v.1.15,2016-02-11 17:31:00,
2016-02-11 11:36:00,25.7,11.3,30.29,NE,49,0.0,6.0,54,0.00,,,0.00,Wunderground v.1.15,2016-02-11 17:36:00,
2016-02-11 11:41:00,25.7,11.7,30.29,ENE,74,0.0,2.0,55,0.00,,,0.00,Wunderground v.1.15,2016-02-11 17:41:00,
2016-02-11 11:46:00,25.6,11.2,30.28,NNE,28,1.0,4.0,54,0.00,,,0.00,Wunderground v.1.15,2016-02-11 17:46:00,
2016-02-11 11:51:00,26.0,11.6,30.28,North,11,1.0,6.0,54,0.00,,,0.00,Wunderground v.1.15,2016-02-11 17:51:00,
2016-02-11 11:56:00,26.4,12.0,30.28,NNW,344,0.0,6.0,54,0.00,,,0.00,Wunderground v.1.15,2016-02-11 17:56:00,
2016-02-11 12:01:00,26.9,11.6,30.28,NNE,21,1.0,4.0,52,0.00,,,0.00,Wunderground v.1.15,2016-02-11 18:01:00,
2016-02-11 12:06:00,26.7,9.1,30.28,North,360,0.0,6.0,47,0.00,,,0.00,Wunderground v.1.15,2016-02-11 18:06:00,
2016-02-11 12:11:00,26.4,7.9,30.28,North,5,3.0,5.0,45,0.00,,,0.00,Wunderground v.1.15,2016-02-11 18:11:00,
2016-02-11 12:16:00,26.9,9.3,30.27,NNE,13,0.0,6.0,47,0.00,,,0.00,Wunderground v.1.15,2016-02-11 18:16:00,
2016-02-11 12:21:00,26.7,9.1,30.27,East,86,3.0,5.0,47,0.00,,,0.00,Wunderground v.1.15,2016-02-11 18:21:00,
2016-02-11 12:26:00,26.9,9.3,30.27,NNW,344,2.0,6.0,47,0.00,,,0.00,Wunderground v.1.15,2016-02-11 18:26:00,
2016-02-11 12:31:00,27.2,10.1,30.26,NE,51,2.0,4.0,48,0.00,,,0.00,Wunderground v.1.15,2016-02-11 18:31:00,
2016-02-11 12:36:00,27.3,10.2,30.26,NW,326,2.0,6.0,48,0.00,,,0.00,Wunderground v.1.15,2016-02-11 18:36:00,
2016-02-11 12:41:00,28.2,13.2,30.26,NNW,327,0.0,2.0,53,0.00,,,0.00,Wunderground v.1.15,2016-02-11 18:41:00,
2016-02-11 12:46:00,28.1,9.9,30.24,NE,55,2.0,4.0,46,0.00,,,0.00,Wunderground v.1.15,2016-02-11 18:46:00,
2016-02-11 12:51:00,27.9,9.8,30.24,East,89,3.0,5.0,46,0.00,,,0.00,Wunderground v.1.15,2016-02-11 18:51:00,
2016-02-11 12:56:00,28.1,9.9,30.24,NE,49,1.0,5.0,46,0.00,,,0.00,Wunderground v.1.15,2016-02-11 18:56:00,
2016-02-11 13:01:00,27.9,9.3,30.22,ENE,63,0.0,4.0,45,0.00,,,0.00,Wunderground v.1.15,2016-02-11 19:01:00,
2016-02-11 13:06:00,28.2,9.5,30.22,SSE,150,0.0,5.0,45,0.00,,,0.00,Wunderground v.1.15,2016-02-11 19:06:00,
2016-02-11 13:11:00,29.3,13.8,30.22,North,360,2.0,5.0,52,0.00,,,0.00,Wunderground v.1.15,2016-02-11 19:11:00,
2016-02-11 13:16:00,28.5,10.3,30.23,East,101,2.0,5.0,46,0.00,,,0.00,Wunderground v.1.15,2016-02-11 19:16:00,
2016-02-11 13:21:00,29.1,13.2,30.23,ENE,67,2.0,4.0,51,0.00,,,0.00,Wunderground v.1.15,2016-02-11 19:21:00,
2016-02-11 13:26:00,28.7,11.0,30.23,ENE,62,3.0,4.0,47,0.00,,,0.00,Wunderground v.1.15,2016-02-11 19:26:00,
2016-02-11 13:31:00,29.1,11.4,30.24,NNE,14,4.0,6.0,47,0.00,,,0.00,Wunderground v.1.15,2016-02-11 19:31:00,
2016-02-11 13:36:00,29.3,11.5,30.24,NE,36,0.0,6.0,47,0.00,,,0.00,Wunderground v.1.15,2016-02-11 19:36:00,
2016-02-11 13:46:00,30.0,13.6,30.24,ESE,105,0.0,5.0,50,0.00,,,0.00,Wunderground v.1.15,2016-02-11 19:46:00,
2016-02-11 13:51:00,30.3,12.9,30.24,NNE,30,2.0,5.0,48,0.00,,,0.00,Wunderground v.1.15,2016-02-11 19:51:00,
2016-02-11 13:56:00,30.7,13.8,30.24,WNW,300,4.0,7.0,49,0.00,,,0.00,Wunderground v.1.15,2016-02-11 19:56:00,